JBU2941 TISX-TJSJ

Flight info

Callsign JBU2941
Flight time 0h 24m
Altitude 14000
Route HMLTN9 STT RTE2 SJU
Aircraft A320/M-SDE3FGHIRWY/LB1

Departure

Time 2026-05-05 22:57
Airport Henry E. Rohlsen Airport (TISX)

Arrival

Time 2026-05-05 23:21
Airport Luis Munoz Marin International Airport (TJSJ)
Time Latitude Longitude Altitude Speed Heading
2026-05-05 22:33 17.70007 -64.79629 67 ft 0 kts 173°
2026-05-05 22:49 17.70026 -64.79631 69 ft 4 kts 176°
2026-05-05 22:49 17.70053 -64.79631 74 ft 4 kts 187°
2026-05-05 22:49 17.70078 -64.79625 72 ft 4 kts 216°
2026-05-05 22:49 17.70089 -64.79610 69 ft 1 kts 264°
2026-05-05 22:50 17.70089 -64.79606 69 ft 0 kts 264°
2026-05-05 22:52 17.70087 -64.79633 71 ft 9 kts 268°
2026-05-05 22:52 17.70081 -64.79709 77 ft 12 kts 262°
2026-05-05 22:52 17.70067 -64.79804 76 ft 15 kts 265°
2026-05-05 22:53 17.70058 -64.79923 76 ft 18 kts 264°
2026-05-05 22:53 17.70044 -64.80062 66 ft 21 kts 264°
2026-05-05 22:53 17.70027 -64.80218 76 ft 23 kts 264°
2026-05-05 22:53 17.70010 -64.80396 74 ft 26 kts 264°
2026-05-05 22:54 17.69989 -64.80595 71 ft 29 kts 264°
2026-05-05 22:54 17.69967 -64.80810 77 ft 31 kts 263°
2026-05-05 22:54 17.69943 -64.81046 77 ft 34 kts 264°
2026-05-05 22:54 17.69919 -64.81283 77 ft 29 kts 264°
2026-05-05 22:55 17.69902 -64.81455 73 ft 22 kts 264°
2026-05-05 22:55 17.69909 -64.81598 72 ft 14 kts 323°
2026-05-05 22:55 17.70003 -64.81601 73 ft 8 kts 35°
2026-05-05 22:55 17.70019 -64.81558 73 ft 0 kts 84°
2026-05-05 22:56 17.70022 -64.81515 76 ft 27 kts 84°
2026-05-05 22:56 17.70070 -64.81045 78 ft 98 kts 84°
2026-05-05 22:56 17.70158 -64.80153 82 ft 149 kts 86°
2026-05-05 22:56 17.70275 -64.79017 511 ft 164 kts 87°
2026-05-05 22:57 17.70249 -64.77763 1005 ft 180 kts 97°
2026-05-05 22:57 17.70500 -64.76423 1502 ft 202 kts 63°
2026-05-05 22:57 17.71296 -64.75109 2041 ft 225 kts 59°
2026-05-05 22:57 17.72148 -64.73647 2599 ft 246 kts 65°
2026-05-05 22:58 17.72929 -64.72001 3397 ft 256 kts 62°
2026-05-05 22:58 17.74235 -64.70703 4321 ft 269 kts 27°
2026-05-05 22:58 17.76093 -64.70383 5241 ft 280 kts 354°
2026-05-05 22:58 17.77918 -64.71077 6147 ft 287 kts 332°
2026-05-05 22:59 17.79612 -64.72224 7003 ft 293 kts 326°
2026-05-05 22:59 17.81273 -64.73468 7901 ft 294 kts 326°
2026-05-05 22:59 17.82975 -64.74676 8775 ft 296 kts 328°
2026-05-05 22:59 17.84738 -64.75808 9669 ft 298 kts 330°
2026-05-05 23:00 17.88550 -64.77964 10532 ft 332 kts 333°
2026-05-05 23:00 17.90686 -64.79083 10748 ft 353 kts 334°
2026-05-05 23:00 17.92923 -64.80233 11265 ft 362 kts 334°
2026-05-05 23:01 17.95171 -64.81383 11885 ft 366 kts 334°
2026-05-05 23:01 17.97471 -64.82563 12542 ft 370 kts 333°
2026-05-05 23:01 17.99794 -64.83763 13199 ft 374 kts 333°
2026-05-05 23:01 18.02135 -64.84978 13774 ft 378 kts 333°
2026-05-05 23:02 18.04492 -64.86208 13948 ft 379 kts 333°
2026-05-05 23:02 18.06900 -64.87469 13993 ft 396 kts 333°
2026-05-05 23:02 18.09431 -64.88793 13995 ft 416 kts 333°
2026-05-05 23:02 18.12053 -64.90167 13993 ft 424 kts 333°
2026-05-05 23:03 18.14701 -64.91551 13993 ft 426 kts 333°
2026-05-05 23:03 18.17324 -64.92917 13990 ft 426 kts 333°
2026-05-05 23:03 18.19986 -64.94300 13999 ft 427 kts 333°
2026-05-05 23:03 18.22642 -64.95682 13999 ft 427 kts 333°
2026-05-05 23:04 18.25304 -64.97066 13996 ft 426 kts 333°
2026-05-05 23:04 18.27965 -64.98454 13993 ft 427 kts 333°
2026-05-05 23:04 18.30537 -64.99999 14007 ft 426 kts 323°
2026-05-05 23:04 18.32739 -65.02073 14013 ft 425 kts 311°
2026-05-05 23:05 18.34455 -65.04599 14013 ft 424 kts 298°
2026-05-05 23:05 18.35607 -65.07448 14010 ft 423 kts 286°
2026-05-05 23:05 18.36136 -65.10439 14005 ft 423 kts 274°
2026-05-05 23:05 18.36344 -65.13531 14007 ft 422 kts 273°
2026-05-05 23:06 18.36553 -65.16614 14004 ft 422 kts 273°
2026-05-05 23:06 18.36766 -65.19695 13998 ft 422 kts 274°
2026-05-05 23:06 18.36980 -65.22774 13998 ft 422 kts 274°
2026-05-05 23:06 18.37192 -65.25857 13993 ft 422 kts 274°
2026-05-05 23:07 18.37403 -65.28939 13991 ft 422 kts 274°
2026-05-05 23:07 18.37615 -65.32024 13985 ft 422 kts 274°
2026-05-05 23:07 18.37826 -65.35063 13984 ft 422 kts 274°
2026-05-05 23:07 18.38036 -65.38145 13986 ft 422 kts 274°
2026-05-05 23:08 18.38244 -65.41228 13983 ft 422 kts 274°
2026-05-05 23:08 18.38449 -65.44317 13982 ft 422 kts 274°
2026-05-05 23:08 18.38650 -65.47332 13935 ft 402 kts 274°
2026-05-05 23:08 18.38844 -65.50217 13613 ft 389 kts 274°
2026-05-05 23:09 18.39034 -65.53041 13212 ft 385 kts 274°
2026-05-05 23:09 18.39220 -65.55842 12814 ft 383 kts 274°
2026-05-05 23:09 18.39404 -65.58598 12425 ft 381 kts 274°
2026-05-05 23:09 18.39589 -65.61408 12033 ft 379 kts 274°
2026-05-05 23:10 18.39770 -65.64134 11655 ft 378 kts 273°
2026-05-05 23:10 18.39952 -65.66885 11272 ft 376 kts 273°
2026-05-05 23:10 18.40131 -65.69626 10901 ft 372 kts 273°
2026-05-05 23:10 18.40309 -65.72300 10532 ft 361 kts 273°
2026-05-05 23:11 18.40485 -65.74907 10162 ft 352 kts 274°
2026-05-05 23:11 18.40656 -65.77450 9786 ft 345 kts 273°
2026-05-05 23:11 18.40823 -65.79948 9380 ft 339 kts 273°
2026-05-05 23:11 18.40982 -65.82402 8984 ft 334 kts 273°
2026-05-05 23:12 18.41138 -65.84821 8594 ft 329 kts 272°
2026-05-05 23:12 18.41287 -65.87179 8206 ft 325 kts 272°
2026-05-05 23:12 18.41437 -65.89530 7667 ft 317 kts 273°
2026-05-05 23:12 18.41584 -65.91808 7127 ft 307 kts 273°
2026-05-05 23:13 18.41728 -65.94020 6597 ft 299 kts 274°
2026-05-05 23:13 18.41867 -65.96172 6125 ft 288 kts 274°
2026-05-05 23:13 18.41962 -65.98242 5999 ft 283 kts 268°
2026-05-05 23:13 18.41572 -66.00264 6013 ft 284 kts 249°
2026-05-05 23:14 18.40840 -66.02196 5926 ft 286 kts 246°
2026-05-05 23:14 18.40070 -66.04116 5574 ft 283 kts 246°
2026-05-05 23:14 18.39304 -66.06020 5239 ft 282 kts 246°
2026-05-05 23:14 18.38556 -66.07892 4892 ft 272 kts 246°
2026-05-05 23:15 18.37979 -66.09737 4552 ft 261 kts 261°
2026-05-05 23:15 18.37818 -66.11599 4208 ft 250 kts 265°
2026-05-05 23:15 18.37742 -66.13395 3871 ft 241 kts 268°
2026-05-05 23:15 18.37924 -66.15122 3535 ft 234 kts 273°
2026-05-05 23:16 18.37852 -66.16768 3205 ft 225 kts 264°
2026-05-05 23:16 18.38092 -66.18347 2997 ft 215 kts 298°
2026-05-05 23:16 18.39112 -66.19437 2996 ft 210 kts 336°
2026-05-05 23:16 18.40502 -66.19681 3001 ft 201 kts 15°
2026-05-05 23:17 18.41696 -66.19018 3006 ft 194 kts 53°
2026-05-05 23:17 18.42243 -66.17783 3023 ft 184 kts 82°
2026-05-05 23:17 18.42538 -66.16543 2999 ft 169 kts 74°
2026-05-05 23:17 18.42956 -66.15397 2749 ft 164 kts 72°
2026-05-05 23:18 18.43355 -66.14295 2480 ft 160 kts 82°
2026-05-05 23:18 18.43351 -66.13149 2193 ft 155 kts 94°
2026-05-05 23:18 18.43361 -66.12054 1963 ft 148 kts 92°
2026-05-05 23:18 18.43368 -66.11009 1777 ft 138 kts 92°
2026-05-05 23:19 18.43370 -66.10023 1591 ft 134 kts 92°
2026-05-05 23:19 18.43370 -66.09046 1420 ft 133 kts 94°
2026-05-05 23:19 18.43369 -66.08082 1256 ft 131 kts 93°
2026-05-05 23:19 18.43367 -66.07112 1093 ft 132 kts 95°
2026-05-05 23:20 18.43358 -66.06134 917 ft 134 kts 96°
2026-05-05 23:20 18.43367 -66.05154 728 ft 134 kts 95°
2026-05-05 23:20 18.43356 -66.04179 560 ft 132 kts 94°
2026-05-05 23:20 18.43362 -66.03223 384 ft 134 kts 92°
2026-05-05 23:21 18.43360 -66.02247 198 ft 133 kts 92°
2026-05-05 23:21 18.43359 -66.01269 39 ft 134 kts 93°
2026-05-05 23:21 18.43351 -66.00434 17 ft 79 kts 91°
2026-05-05 23:21 18.43353 -66.00090 17 ft 34 kts 88°
2026-05-05 23:22 18.43407 -65.99917 19 ft 13 kts 62°
2026-05-05 23:22 18.43465 -65.99938 17 ft 13 kts 270°
2026-05-05 23:22 18.43464 -66.00048 17 ft 17 kts 270°
2026-05-05 23:22 18.43465 -66.00182 17 ft 20 kts 270°
2026-05-05 23:23 18.43464 -66.00340 17 ft 23 kts 270°
2026-05-05 23:23 18.43467 -66.00505 17 ft 20 kts 274°
2026-05-05 23:23 18.43504 -66.00591 18 ft 11 kts 351°
2026-05-05 23:23 18.43531 -66.00591 17 ft 2 kts
2026-05-05 23:24 18.43546 -66.00591 17 ft 1 kts
2026-05-05 23:24 18.43547 -66.00591 17 ft 0 kts